Vertical_Velocity
-1 1 1 -0 1 1 1 -1 2 0 1 0 0 0 1 3 1 2 1 1 0 -1 -0 2 1 0 2 0 -6 0 3 3 1 1 -0 -3 -1 -2 -1 -1 0 0 -1 2 -1 0 -1
1 -1 1 0 1 1 1 1 1 1 1 1 -0 1 1 -0 1 0 1 1 0 0 3 1 2 1 1 -2 1 2 6 3 3 1 -2 1 -3 -1 -1 -0 -1 0 0 -3 -2 -3 -0
-2 0 -1 1 -0 0 1 1 0 0 1 -0 0 1 -1 0 3 2 1 1 1 0 1 2 1 1 1 -11 2 2 5 6 5 1 -2 -1 0 0 1 -0 1 1 -2 -2 -1 0 -2
1 -2 -1 -0 0 0 1 0 1 -0 0 1 1 -1 0 0 0 0 1 0 0 -0 1 1 2 1 -7 -0 2 2 2 2 4 2 0 1 1 -0 -1 1 -3 -2 -3 -2 -4 0 -1
0 0 -1 -1 -0 -1 -2 -0 1 0 0 0 -1 -0 0 0 0 -0 -0 0 1 1 1 2 1 1 -5 1 2 2 4 3 3 1 1 1 4 -0 1 -3 -4 -3 -2 0 -8 0 -0
-1 -0 -1 -0 -2 -2 -1 -1 -1 0 -0 1 1 -0 -1 -1 -1 -0 -1 -1 2 3 2 1 1 3 2 1 1 2 2 4 -1 1 0 1 -0 -1 -1 -3 -6 -3 1 -0 -1 -2 -0
-2 -1 -2 -2 -1 -2 -1 -1 -1 -1 -1 -1 1 1 1 1 -1 -1 1 0 1 1 1 -2 0 0 1 1 1 2 4 0 0 2 -2 1 -4 -3 -4 -2 -1 -1 0 0 -2 -1 0
-1 0 -2 -2 -1 -1 -2 -1 -1 -1 -1 -1 -0 0 2 1 -1 2 1 0 -1 -0 -4 1 1 -0 0 1 0 3 3 -0 -1 -1 0 -6 -3 -4 -1 0 1 0 1 -3 -5 -0 -0
1 -2 -0 -1 -1 -1 -1 -1 -1 -1 -1 -1 -2 0 1 2 1 2 1 1 0 -0 -2 -1 0 0 -1 2 1 -0 3 0 -2 0 -0 -4 -6 -1 -1 1 1 -0 -1 -1 -4 -1 -1
-2 -2 -1 -1 -1 -0 -1 -1 -1 -1 -1 -1 -1 -2 -0 2 0 1 -0 0 -0 -0 -7 -3 -0 0 1 2 -0 2 6 -0 0 -3 -1 -2 -3 -0 1 -0 -3 1 -3 0 1 -2 -4
-0 -1 -2 -1 -1 -0 -1 -1 -1 -1 -1 -1 -2 -1 0 3 1 0 -1 -0 -0 0 -6 -3 0 2 2 -2 -0 -1 2 1 -1 -0 -6 -12 0 0 0 -6 -2 -12 -1 -2 -1 -0 1
-2 -1 -2 -0 -1 -1 -1 0 -1 -0 -0 0 -0 -0 1 4 3 1 1 0 -0 -17 -12 -1 1 -0 -2 -1 0 2 0 0 1 0 0 -3 0 1 -6 -0 -1 -0 -1 -2 -1 -1 0
-1 -2 -1 -2 -3 -1 -2 -0 -1 -1 -0 1 1 0 1 1 0 1 1 1 -14 -6 -6 -3 -0 -1 -1 -1 -2 -1 -1 -5 -2 -2 -2 -4 -1 -1 1 -0 -0 -2 -4 -4 -4 -2 -7
-2 -1 -1 -3 -1 -1 -2 -1 -0 -1 0 1 0 0 1 0 1 1 1 -7 0 1 1 -1 -1 -1 -2 1 1 -0 -0 -1 -3 -2 -1 0 -12 -0 0 0 -2 -1 -6 -6 -3 -2 -4
3 2 -1 -2 1 -1 -2 1 -1 0 0 1 0 2 2 1 1 1 1 -5 1 1 1 0 -2 -2 0 -2 -1 -3 -0 0 2 1 -1 -1 -5 -4 -1 0 -0 -0 -2 -5 -1 -1 -1
-6 0 -1 1 -1 -2 -1 -0 2 1 1 0 -2 1 1 1 1 3 -9 -1 -0 1 0 0 -1 0 -0 -0 -4 -4 -1 2 1 0 -0 2 -4 0 -5 -2 -2 -1 -3 -5 -3 -1 -0
0 2 2 -4 -4 1 1 -0 2 1 -1 -0 -0 1 2 2 3 -6 -4 2 0 2 1 -1 -0 -1 1 -0 -0 1 3 2 -1 -1 -2 -0 -1 -11 -6 -3 2 -9 -3 -6 1 1 1
5 3 1 -1 -4 -1 2 -1 2 1 -1 1 -0 -3 -0 3 -13 0 -1 1 1 -0 -1 -1 -3 -1 -0 0 -0 -1 -1 0 2 2 -1 -0 -2 -1 -4 3 -1 0 1 -0 -2 -5 -0
-6 8 3 -2 -5 -6 -0 3 1 3 -1 -1 -1 -1 2 2 -4 0 1 1 -0 -3 1 -1 -0 -1 -0 -0 -2 -1 -0 3 0 -1 -1 -2 -3 -4 2 4 -6 -3 -0 0 -0 -1 -2
2 -1 -1 -2 -2 -1 4 3 -0 1 -1 -0 0 -4 -6 -11 1 -4 -1 1 1 -1 -0 -1 -0 -2 -3 -2 -1 -0 0 1 -1 -0 2 1 -0 -6 -8 -4 -2 0 -0 -0 -2 -2 -3
2 -6 3 -0 -6 -7 -3 -2 0 -1 -0 -1 -2 1 0 -1 -4 -1 -3 -1 -0 -1 -1 -1 -0 -1 -1 -1 -1 -0 -0 -4 -3 1 -0 -5 -2 -0 -0 -0 0 -1 0 -0 -1 -2 -6
-1 -4 2 -3 -3 -4 3 3 -2 -3 -2 -10 -3 -2 -1 -0 0 -3 -1 2 -0 1 -2 1 -3 0 -0 -1 -2 -1 -1 -0 -1 -5 -1 -1 -4 -1 -2 -0 -1 -1 -0 -0 -0 0 -1
-5 1 2 -0 -2 -2 -2 -1 -3 -1 0 -2 0 0 0 3 -0 -3 1 1 1 -1 2 -2 -1 -1 0 -1 -1 -3 -1 -0 -1 -1 0 -0 -1 -2 -3 -0 0 -3 1 1 0 -0 1
-3 -0 -1 -3 -7 -4 -2 -2 -7 -10 -10 -2 -1 -0 -4 1 -2 1 -0 -1 -0 0 -2 1 -1 -2 2 1 2 0 0 0 1 -2 -2 -1 -0 -1 -2 -2 -5 -2 0 -0 -1 0 -0
-1 -1 -1 -2 -2 -3 -3 -2 -4 -0 -3 -4 -2 -4 -1 0 -1 0 -0 -1 0 1 -1 -0 1 1 -0 1 -1 -1 -1 -0 -1 1 0 -1 -1 0 -3 -1 -6 -4 -3 -3 -4 -4 -0
2 -0 -1 -1 -1 0 -6 -1 -2 -4 -2 -2 -3 -1 -2 -10 -1 1 -1 0 -1 0 -3 0 1 0 -1 -0 -1 -1 -1 1 2 2 -0 -2 -1 -2 -1 -2 -2 -6 -1 1 -1 -6 0
-1 -1 1 -2 -1 -0 -1 -1 -4 -3 -1 -2 -0 -0 1 -6 -0 1 -1 -2 0 -0 -1 -0 -2 -3 1 -0 -1 -1 1 0 -2 -0 -1 -1 -2 -1 -0 -1 -5 -3 -0 1 -14 -14 -0
-2 0 -2 0 -1 -2 -2 -4 -4 -4 -3 -2 -0 -3 -1 -2 2 2 1 -0 -0 -1 -2 -1 -3 -4 -2 -3 -2 -0 -1 1 -4 0 -0 -2 -2 -1 -2 -2 -8 1 -2 -6 -6 0 0
-1 -1 0 -0 -2 -2 -2 1 -2 -3 -3 -1 -4 -2 -1 -3 0 3 0 -0 -0 0 -2 -0 -1 1 1 -1 -2 -2 -1 -2 -2 -1 -1 -2 -2 -2 -3 -5 0 -0 -0 1 1 2 -1
Height
1502 1498 1496 1493 1491 1489 1486 1483 1481 1478 1475 1473 1470 1467 1463 1459 1458 1457 1458 1458 1460 1461 1462 1463 1463 1465 1466 1467 1464 1462 1461 1462 1464 1467 1470 1473 1476 1479 1482 1482 1483 1484 1480 1478 1476 1476 1475
1501 1498 1496 1493 1490 1487 1485 1483 1480 1477 1475 1472 1470 1467 1464 1461 1459 1457 1457 1457 1458 1459 1460 1461 1462 1463 1465 1467 1462 1461 1462 1463 1465 1467 1470 1473 1475 1478 1479 1480 1481 1479 1478 1475 1473 1471 1472
1500 1497 1495 1493 1490 1487 1484 1481 1479 1476 1474 1471 1469 1466 1463 1461 1458 1457 1457 1457 1457 1458 1459 1460 1461 1462 1462 1460 1460 1461 1461 1463 1465 1466 1469 1473 1475 1478 1478 1478 1478 1477 1478 1474 1468 1468 1469
1500 1497 1494 1492 1489 1486 1483 1480 1478 1475 1473 1470 1468 1466 1463 1461 1459 1457 1456 1456 1456 1456 1458 1459 1460 1461 1458 1457 1457 1459 1460 1462 1464 1466 1469 1472 1474 1477 1478 1478 1478 1480 1481 1483 1468 1468 1468
1499 1496 1493 1490 1487 1484 1481 1478 1476 1473 1471 1468 1466 1464 1462 1460 1458 1457 1456 1455 1455 1455 1456 1458 1460 1460 1456 1455 1455 1457 1460 1462 1463 1465 1469 1471 1474 1475 1477 1482 1488 1487 1490 1485 1477 1469 1470
1499 1495 1492 1489 1486 1482 1479 1476 1473 1471 1468 1466 1464 1463 1461 1459 1457 1456 1456 1455 1454 1455 1456 1458 1458 1462 1455 1454 1454 1456 1459 1461 1462 1465 1469 1472 1473 1477 1480 1484 1494 1486 1487 1484 1482 1471 1471
1498 1494 1491 1487 1483 1480 1477 1473 1471 1468 1465 1463 1461 1460 1459 1457 1456 1455 1455 1455 1458 1457 1455 1452 1453 1453 1451 1453 1455 1456 1458 1460 1462 1465 1470 1471 1477 1475 1473 1474 1475 1476 1481 1481 1475 1469 1471
1497 1493 1489 1485 1481 1477 1473 1470 1467 1464 1461 1459 1457 1456 1455 1454 1453 1453 1453 1453 1452 1454 1451 1449 1450 1452 1452 1453 1454 1456 1459 1461 1462 1468 1469 1476 1478 1467 1468 1473 1476 1478 1481 1483 1474 1468 1471
1494 1491 1486 1482 1478 1474 1471 1467 1464 1461 1458 1456 1454 1452 1451 1450 1450 1450 1450 1451 1451 1451 1451 1449 1448 1448 1450 1453 1453 1454 1458 1459 1462 1468 1470 1474 1466 1464 1468 1472 1476 1478 1481 1479 1476 1469 1468
1493 1488 1484 1480 1476 1472 1468 1465 1461 1458 1455 1452 1450 1448 1447 1447 1449 1447 1448 1449 1449 1450 1458 1451 1449 1449 1450 1450 1453 1454 1457 1459 1462 1465 1470 1471 1463 1464 1467 1468 1471 1476 1466 1466 1471 1475 1480
1492 1487 1482 1478 1474 1470 1466 1462 1458 1455 1451 1449 1446 1443 1442 1443 1443 1445 1448 1448 1448 1450 1476 1451 1449 1449 1449 1452 1454 1455 1457 1458 1461 1463 1467 1464 1460 1462 1466 1463 1464 1466 1462 1467 1468 1476 1474
1491 1487 1481 1477 1472 1468 1464 1459 1455 1451 1448 1446 1443 1440 1439 1440 1442 1444 1445 1447 1449 1460 1473 1451 1449 1449 1451 1452 1454 1456 1457 1459 1461 1462 1463 1462 1459 1459 1458 1456 1458 1458 1462 1470 1477 1479 1482
1491 1486 1481 1476 1471 1467 1462 1457 1452 1448 1445 1443 1442 1441 1439 1439 1441 1442 1445 1447 1460 1463 1453 1457 1454 1453 1455 1460 1457 1457 1465 1473 1475 1468 1470 1465 1459 1456 1455 1457 1458 1460 1468 1482 1479 1488 1473
1491 1486 1481 1476 1471 1466 1461 1455 1450 1445 1441 1441 1441 1441 1440 1439 1440 1442 1444 1449 1454 1462 1462 1459 1458 1456 1462 1465 1464 1463 1468 1478 1480 1480 1478 1477 1468 1457 1457 1456 1457 1463 1467 1477 1473 1474 1468
1493 1488 1482 1477 1471 1465 1460 1454 1448 1443 1438 1439 1441 1441 1440 1439 1439 1441 1445 1458 1467 1467 1467 1465 1460 1460 1467 1468 1466 1468 1483 1484 1485 1487 1484 1486 1473 1464 1460 1459 1458 1465 1467 1460 1465 1464 1475
1494 1488 1482 1477 1471 1465 1459 1454 1447 1441 1438 1439 1441 1441 1440 1439 1440 1442 1447 1461 1467 1469 1468 1465 1464 1470 1473 1475 1473 1474 1481 1488 1487 1489 1489 1491 1489 1473 1465 1459 1459 1460 1462 1466 1472 1469 1468
1494 1489 1482 1476 1471 1466 1460 1453 1448 1442 1440 1441 1442 1441 1441 1440 1441 1443 1458 1462 1468 1470 1468 1469 1470 1475 1481 1483 1479 1480 1482 1492 1491 1490 1490 1493 1492 1484 1473 1479 1481 1475 1481 1483 1478 1476 1466
1497 1491 1483 1477 1471 1467 1460 1454 1448 1444 1441 1442 1442 1443 1441 1441 1444 1455 1465 1466 1470 1473 1471 1472 1476 1480 1483 1486 1485 1484 1487 1492 1493 1492 1495 1494 1499 1503 1489 1493 1486 1491 1498 1496 1493 1498 1498
1498 1492 1483 1478 1474 1469 1463 1456 1450 1445 1442 1441 1441 1442 1442 1440 1453 1463 1468 1472 1476 1476 1478 1478 1484 1485 1486 1488 1490 1490 1490 1495 1494 1494 1499 1496 1503 1516 1488 1490 1488 1503 1513 1510 1504 1503 1506
1499 1494 1486 1480 1476 1470 1464 1457 1450 1445 1441 1441 1442 1446 1447 1446 1456 1461 1469 1476 1479 1481 1483 1484 1488 1488 1489 1493 1493 1495 1494 1495 1495 1495 1494 1494 1501 1506 1512 1504 1506 1507 1518 1520 1520 1537 1528
1500 1495 1490 1484 1478 1472 1466 1460 1453 1446 1441 1441 1444 1457 1459 1467 1466 1466 1469 1478 1481 1485 1485 1487 1491 1492 1493 1495 1496 1496 1497 1498 1494 1495 1495 1498 1513 1503 1500 1501 1503 1525 1523 1522 1529 1542 1531
1503 1498 1494 1486 1480 1474 1469 1463 1456 1450 1445 1441 1449 1457 1462 1468 1471 1472 1476 1484 1485 1487 1488 1491 1492 1494 1495 1496 1495 1500 1500 1501 1502 1499 1500 1502 1514 1504 1513 1502 1506 1528 1529 1526 1528 1537 1544
1506 1502 1495 1489 1484 1479 1474 1469 1463 1456 1451 1451 1456 1459 1461 1474 1475 1475 1483 1485 1488 1487 1491 1491 1493 1494 1496 1496 1497 1497 1498 1498 1500 1501 1503 1505 1509 1522 1532 1505 1509 1523 1538 1531 1535 1540 1541
1507 1503 1498 1494 1488 1484 1480 1474 1469 1465 1462 1462 1462 1462 1464 1480 1478 1480 1484 1485 1488 1489 1490 1492 1492 1493 1495 1494 1493 1494 1494 1496 1498 1499 1500 1504 1507 1510 1534 1505 1529 1541 1539 1539 1540 1544 1544
1509 1505 1500 1496 1492 1487 1483 1479 1476 1473 1470 1468 1466 1466 1468 1480 1481 1483 1485 1487 1489 1490 1491 1492 1493 1493 1492 1491 1492 1495 1496 1498 1502 1503 1501 1502 1506 1513 1525 1534 1536 1544 1543 1545 1545 1546 1545
1512 1508 1503 1498 1494 1490 1487 1484 1480 1477 1475 1473 1471 1470 1471 1475 1486 1485 1487 1488 1491 1492 1493 1492 1493 1492 1492 1492 1490 1517 1512 1493 1497 1504 1506 1506 1511 1512 1531 1525 1521 1547 1542 1541 1542 1546 1544
1514 1510 1506 1501 1497 1494 1490 1485 1483 1480 1478 1477 1475 1474 1474 1477 1485 1486 1487 1489 1491 1492 1494 1493 1493 1493 1492 1492 1496 1512 1502 1503 1512 1515 1524 1519 1527 1536 1535 1540 1545 1543 1542 1542 1548 1546 1543
1516 1512 1507 1503 1499 1495 1492 1489 1486 1482 1480 1480 1479 1478 1478 1480 1486 1487 1488 1489 1491 1492 1496 1496 1497 1495 1495 1499 1502 1506 1508 1515 1524 1533 1541 1544 1550 1550 1556 1561 1545 1542 1542 1544 1544 1541 1540
1517 1513 1509 1504 1500 1497 1494 1491 1487 1484 1481 1482 1482 1482 1481 1482 1487 1488 1489 1491 1493 1494 1495 1496 1498 1497 1498 1500 1506 1510 1523 1526 1532 1542 1538 1539 1550 1549 1546 1544 1542 1541 1541 1541 1541 1540 1537